Terminal Aerodrome Forecast
Issued by NWS Louisville, KY

Home | Current Version | Previous Version | Text Only | Print | Product List | Glossary On
Versions: 1 2 3 4 5 6 7 8 9 10 11 12 13 14 15 16 17
000
FTUS43 KLMK 011100
TAFLEX
TAF
KLEX 011120Z 0112/0212 VRB03KT 3SM BR OVC004
     FM011300 VRB03KT 5SM BR BKN015
     FM011430 VRB04KT P6SM SCT040=

USA.gov is the U.S. government's official web portal to all federal, state and local government web resources and services.